Date,TemperatureHighF,TemperatureAvgF,TemperatureLowF,DewpointHighF,DewpointAvgF,DewpointLowF,HumidityHigh,HumidityAvg,HumidityLow,PressureMaxIn,PressureMinIn,WindSpeedMaxMPH,WindSpeedAvgMPH,GustSpeedMaxMPH,PrecipitationSumIn
2013-1-1,80,72,67,67,63,59,88,74,59,0.00,40.00,9,4,14,0.00
2013-1-2,83,72,65,67,62,60,85,73,58,0.00,40.00,9,4,14,0.00
2013-1-3,81,73,67,68,63,60,85,73,57,0.00,40.00,10,4,16,0.00
2013-1-4,81,72,66,66,60,58,82,68,49,0.00,40.00,16,7,28,0.00
2013-1-5,77,73,69,64,61,58,73,66,61,0.00,40.00,20,14,36,0.01
2013-1-6,79,73,69,66,62,59,84,68,56,0.00,40.00,21,14,37,0.01
2013-1-7,80,72,68,65,62,56,84,72,53,0.00,40.00,15,8,24,0.00
2013-1-8,80,72,68,65,61,58,79,70,56,0.00,40.00,15,10,30,0.00
2013-1-9,80,74,69,66,63,61,80,69,60,0.00,40.00,15,11,28,0.00
2013-1-10,81,73,67,63,60,56,75,64,44,0.00,40.00,14,8,24,0.00
2013-1-11,85,74,67,65,60,57,74,64,46,0.00,40.00,13,6,20,0.00
2013-1-12,83,74,67,68,61,54,76,65,55,0.00,40.00,9,4,15,0.00
2013-1-13,80,72,69,69,65,60,92,79,60,0.00,40.00,11,5,16,0.42
2013-1-14,84,73,67,70,65,56,92,77,54,0.00,40.00,10,5,16,0.49
2013-1-15,80,69,62,61,56,51,79,64,44,0.00,40.00,12,4,22,0.01
2013-1-16,86,71,64,63,59,53,86,66,39,0.00,40.00,9,5,25,0.01
2013-1-17,83,71,63,62,57,53,84,63,41,0.00,40.00,9,6,16,0.01
2013-1-18,83,70,63,64,56,50,72,61,44,0.00,40.00,8,4,16,0.00
2013-1-19,79,69,60,55,51,47,62,54,41,0.00,40.00,8,5,16,0.00
2013-1-20,81,69,61,61,55,49,77,60,46,0.00,40.00,9,5,15,0.00
2013-1-21,84,71,62,61,57,49,81,63,44,0.00,40.00,9,4,16,0.00
2013-1-22,84,72,64,64,61,53,85,69,49,0.00,40.00,11,5,21,0.00
2013-1-23,83,71,65,62,59,57,80,68,46,0.00,40.00,13,5,20,0.00
2013-1-24,86,73,66,65,61,57,87,68,39,0.00,40.00,10,5,19,0.00
2013-1-25,83,73,67,64,60,56,79,64,50,0.00,40.00,10,6,16,0.00
2013-1-26,82,72,67,69,64,61,98,78,50,0.00,40.00,12,6,21,0.09
2013-1-27,72,68,62,68,65,58,98,90,83,0.00,40.00,10,6,20,1.59
2013-1-28,82,70,63,64,60,54,91,73,52,0.00,40.00,8,4,14,0.09
2013-1-29,81,72,65,67,62,57,87,71,57,0.00,40.00,8,5,14,0.00
2013-1-30,81,73,64,68,61,56,81,68,57,0.00,40.00,8,5,12,0.00
2013-1-31,83,73,65,63,60,55,83,65,48,0.00,40.00,9,5,13,0.00
2013-2-1,84,73,63,62,56,33,87,60,23,0.00,40.00,10,5,23,0.00
2013-2-2,83,73,67,62,59,55,80,62,42,0.00,40.00,13,7,23,0.00
2013-2-3,84,72,65,66,60,55,86,69,50,0.00,40.00,9,4,17,0.00
2013-2-4,84,72,64,64,59,56,82,65,45,0.00,40.00,8,5,15,0.00
2013-2-5,80,70,64,65,58,55,85,69,49,0.00,40.00,14,7,27,0.00
2013-2-6,83,71,64,64,60,56,85,70,50,0.00,40.00,9,4,14,0.00
2013-2-7,85,73,65,65,63,60,90,73,49,0.00,40.00,9,4,18,0.00
2013-2-8,84,73,66,68,64,61,90,74,54,0.00,40.00,11,5,17,0.00
2013-2-9,85,73,65,64,59,49,87,64,49,0.00,40.00,9,6,14,0.00
2013-2-10,86,74,65,64,59,55,83,60,36,0.00,40.00,11,6,21,0.00
2013-2-11,86,74,66,66,60,54,85,65,47,0.00,40.00,10,5,20,0.00
2013-2-12,83,71,63,62,56,52,69,60,43,0.00,40.00,8,4,19,0.00
2013-2-13,83,71,64,61,57,53,75,61,42,0.00,40.00,9,4,16,0.00
2013-2-14,84,70,63,60,57,52,82,64,44,0.00,40.00,10,4,16,0.00
2013-2-15,85,73,66,64,58,52,84,62,39,0.00,40.00,11,8,24,0.00
2013-2-16,82,72,66,64,58,47,91,64,39,0.00,40.00,14,8,31,0.05
2013-2-17,82,72,66,62,57,54,78,59,38,0.00,40.00,15,11,32,0.02
2013-2-18,81,72,65,61,55,50,86,56,41,0.00,40.00,18,12,33,0.01
2013-2-19,81,72,65,58,54,49,74,56,36,0.00,40.00,19,9,32,0.00
2013-2-20,82,72,65,64,59,54,89,66,45,0.00,40.00,16,9,30,0.03
2013-2-21,78,70,64,66,60,53,91,71,57,0.00,40.00,12,6,20,0.10
2013-2-22,81,72,66,67,62,58,83,70,55,0.00,40.00,15,8,27,0.01
2013-2-23,83,73,67,62,59,57,79,62,46,0.00,40.00,16,9,26,0.01
2013-2-24,85,73,65,60,56,54,78,58,35,0.00,40.00,13,6,24,0.00
2013-2-25,86,73,65,61,56,49,76,58,29,0.00,40.00,9,5,21,0.00
2013-2-26,83,72,64,62,58,55,85,63,40,0.00,40.00,14,8,25,0.00
2013-2-27,83,73,67,60,55,49,76,55,31,0.00,40.00,17,11,28,0.00
2013-2-28,83,72,65,59,54,51,66,54,33,0.00,40.00,16,7,26,0.00
2013-3-1,82,72,65,55,53,50,67,53,37,0.00,40.00,17,8,27,0.00
2013-3-2,82,72,66,58,54,51,66,53,37,0.00,40.00,17,10,32,0.00
2013-3-3,81,71,64,59,53,49,72,54,39,0.00,40.00,18,9,29,0.00
2013-3-4,84,71,63,56,53,49,70,54,38,0.00,40.00,15,6,27,0.00
2013-3-5,85,71,63,58,55,49,75,58,39,0.00,40.00,15,6,25,0.00
2013-3-6,84,72,63,61,57,52,75,61,40,0.00,40.00,11,6,19,0.00
2013-3-7,80,72,66,63,57,51,76,60,49,0.00,40.00,10,6,15,0.00
2013-3-8,83,72,66,68,60,55,94,68,51,0.00,40.00,13,7,23,0.10
2013-3-9,79,70,66,68,64,60,97,83,61,0.00,40.00,13,5,23,0.45
2013-3-10,86,73,65,65,56,48,96,59,32,0.00,40.00,9,6,18,0.05
2013-3-11,74,69,64,58,55,52,70,61,51,0.00,40.00,6,4,11,0.00
2013-3-12,85,72,63,57,54,51,72,56,32,0.00,40.00,12,6,21,0.00
2013-3-13,79,70,63,57,54,52,68,58,42,0.00,40.00,11,5,16,0.00
2013-3-14,78,69,64,56,54,52,70,59,44,0.00,40.00,9,5,14,0.00
2013-3-15,82,70,64,63,56,52,85,64,38,0.00,40.00,13,7,21,0.00
2013-3-16,83,70,62,56,50,45,74,52,26,0.00,40.00,8,5,22,0.00
2013-3-17,80,69,61,57,52,47,73,56,40,0.00,40.00,9,4,22,0.00
2013-3-18,81,69,62,55,52,46,76,55,31,0.00,40.00,11,6,18,0.00
2013-3-19,80,71,65,62,55,48,74,58,44,0.00,40.00,10,5,15,0.00
2013-3-20,82,73,66,66,61,56,86,68,52,0.00,40.00,9,5,14,0.00
2013-3-21,83,74,68,71,64,54,90,72,54,0.00,40.00,10,6,19,0.02
2013-3-22,90,74,67,69,65,57,95,75,37,0.00,40.00,12,6,21,0.22
2013-3-23,84,73,68,64,62,57,87,69,50,0.00,40.00,11,5,16,0.05
2013-3-24,80,73,68,66,62,60,85,72,50,0.00,40.00,7,4,11,0.00
2013-3-25,84,74,68,68,64,61,87,72,54,0.00,40.00,9,5,15,0.00
2013-3-26,82,73,67,70,65,63,89,77,59,0.00,40.00,9,4,14,0.07
2013-3-27,81,71,66,69,66,64,98,85,59,0.00,40.00,10,5,16,0.27
2013-3-28,84,77,68,66,63,58,77,64,54,0.00,40.00,10,6,16,0.00
2013-3-29,82,71,66,65,60,56,88,71,46,0.00,40.00,11,5,22,0.08
2013-3-30,81,72,65,70,57,-100,84,64,44,0.00,40.00,12,5,19,0.06
2013-3-31,81,69,61,53,49,46,66,50,32,0.00,40.00,12,6,21,0.03
2013-4-1,82,70,62,58,52,47,74,55,34,0.00,40.00,10,5,25,0.00
2013-4-2,78,69,62,57,52,49,65,55,37,0.00,40.00,11,5,18,0.00
2013-4-3,80,69,62,59,53,48,72,57,38,0.00,40.00,12,6,21,0.00
2013-4-4,84,72,64,64,56,48,78,59,43,0.00,40.00,11,6,17,0.00
2013-4-5,84,74,67,59,57,52,76,56,37,0.00,40.00,14,7,23,0.00
2013-4-6,90,76,68,65,60,55,74,58,34,0.00,40.00,13,6,22,0.00
2013-4-7,84,76,69,68,64,58,87,68,56,0.00,40.00,11,6,17,0.00
2013-4-8,85,75,68,67,63,60,91,70,45,0.00,40.00,15,6,26,0.00
2013-4-9,87,76,67,63,59,53,77,57,36,0.00,40.00,14,7,22,0.00
2013-4-10,87,77,69,64,61,58,77,59,39,0.00,40.00,12,7,22,0.00
2013-4-11,86,77,70,66,63,59,77,64,49,0.00,40.00,10,6,18,0.00
2013-4-12,78,73,70,71,66,62,95,79,71,0.00,40.00,12,6,21,0.08
2013-4-13,75,70,67,69,67,64,96,87,76,0.00,40.00,15,7,25,1.19
2013-4-14,87,75,69,71,65,56,97,74,41,0.00,40.00,9,5,16,0.25
2013-4-15,81,73,68,68,65,61,87,75,59,0.00,40.00,8,4,14,0.01
2013-4-16,83,75,70,67,65,62,89,72,51,0.00,40.00,9,5,14,0.00
2013-4-17,87,77,69,65,62,60,82,62,43,0.00,40.00,14,7,24,0.00
2013-4-18,84,75,69,66,63,59,90,66,48,0.00,40.00,16,7,23,0.00
2013-4-19,85,75,67,66,63,60,87,68,46,0.00,40.00,17,9,24,0.00
2013-4-20,83,75,69,70,67,62,90,75,59,0.00,40.00,9,6,15,0.00
2013-4-21,80,73,69,72,67,62,96,83,55,0.00,40.00,6,3,13,0.84
2013-4-22,74,70,67,69,65,61,96,84,75,0.00,40.00,7,4,12,0.85
2013-4-23,80,73,68,72,68,64,96,83,70,0.00,40.00,9,4,15,0.60
2013-4-24,86,75,68,70,66,62,88,73,56,0.00,40.00,8,4,14,0.01
2013-4-25,86,76,69,68,64,60,88,68,53,0.00,40.00,11,4,17,0.00
2013-4-26,84,76,69,63,60,58,74,60,41,0.00,40.00,15,9,27,0.00
2013-4-27,82,74,68,67,63,59,82,69,53,0.00,40.00,11,7,16,0.00
2013-4-28,82,75,71,72,68,63,92,80,66,0.00,40.00,10,6,17,0.03
2013-4-29,83,76,71,73,70,68,94,83,66,0.00,40.00,8,5,13,0.17
2013-4-30,84,75,70,75,70,67,96,84,61,0.00,40.00,7,4,11,0.32
2013-5-1,85,77,69,69,66,62,91,70,54,0.00,40.00,13,5,22,0.04
2013-5-2,84,74,69,70,67,62,97,78,58,0.00,40.00,11,6,16,0.15
2013-5-3,80,74,70,70,68,66,92,82,67,0.00,40.00,10,4,14,0.18
2013-5-4,83,75,70,71,67,64,94,77,64,0.00,40.00,9,4,14,0.02
2013-5-5,83,75,69,70,68,62,96,78,58,0.00,40.00,8,5,14,0.05
2013-5-6,81,74,69,64,60,54,77,63,44,0.00,40.00,10,6,17,0.01
2013-5-7,81,73,65,63,60,54,77,64,53,0.00,40.00,10,5,16,0.00
2013-5-8,85,74,66,68,62,56,82,66,53,0.00,40.00,10,5,17,0.00
2013-5-9,89,76,69,66,63,60,81,66,44,0.00,40.00,11,5,18,0.00
2013-5-10,85,75,69,69,60,-100,79,66,53,0.00,40.00,9,5,15,0.00
2013-5-11,84,75,68,63,58,-100,68,58,48,0.00,40.00,10,5,15,0.00
2013-5-12,87,76,67,65,60,55,76,58,44,0.00,40.00,9,5,15,0.00
2013-5-13,85,76,68,72,67,63,95,75,58,0.00,40.00,15,7,26,0.02
2013-5-14,89,79,71,69,64,59,84,62,43,0.00,40.00,14,9,24,0.02
2013-5-15,89,79,71,66,63,61,76,59,42,0.00,40.00,15,8,24,0.00
2013-5-16,88,74,69,67,45,-100,84,59,38,0.00,40.00,18,8,28,0.01
2013-5-17,89,77,70,65,59,-100,71,58,39,0.00,40.00,12,6,20,0.01
2013-5-18,87,77,69,66,61,56,80,60,39,0.00,40.00,10,5,16,0.00
2013-5-19,85,74,68,65,62,57,89,68,48,0.00,40.00,9,5,16,0.03
2013-5-20,82,72,65,63,58,46,88,64,47,0.00,40.00,9,5,17,0.02
2013-5-21,83,74,68,63,60,56,77,63,48,0.00,40.00,9,5,15,0.00
2013-5-22,86,76,69,66,62,58,79,64,48,0.00,40.00,9,4,15,0.00
2013-5-23,87,77,72,71,64,55,88,65,48,0.00,40.00,10,4,19,0.00
2013-5-24,91,79,72,69,65,62,84,64,44,0.00,40.00,9,5,16,0.00
2013-5-25,90,79,71,69,66,62,88,65,46,0.00,40.00,17,6,25,0.00
2013-5-26,90,78,70,67,63,55,79,61,36,0.00,40.00,9,5,16,0.00
2013-5-27,88,77,71,66,61,58,72,59,41,0.00,40.00,16,8,27,0.00
2013-5-28,90,77,69,67,62,56,77,62,46,0.00,40.00,14,5,22,0.00
2013-5-29,87,78,70,71,66,62,78,67,52,0.00,40.00,9,5,16,0.00
2013-5-30,84,76,71,72,66,62,86,72,54,0.00,40.00,9,5,14,0.01
2013-5-31,90,78,71,70,67,62,85,70,43,0.00,40.00,13,6,24,0.01
2013-6-1,91,80,72,68,65,62,82,64,42,0.00,40.00,12,6,21,0.00
2013-6-2,91,80,72,70,66,63,81,63,43,0.00,40.00,18,7,35,0.00
2013-6-3,89,78,71,68,62,57,87,60,40,0.00,40.00,20,10,34,0.00
2013-6-4,88,79,72,65,61,58,66,55,40,0.00,40.00,15,8,25,0.00
2013-6-5,89,79,71,65,60,58,77,55,35,0.00,40.00,17,8,29,0.00
2013-6-6,88,78,70,64,60,56,79,56,40,0.00,40.00,17,8,27,0.00
2013-6-7,87,78,71,66,60,57,73,56,39,0.00,40.00,17,9,27,0.00
2013-6-8,88,79,73,62,60,57,66,53,35,0.00,40.00,17,11,28,0.00
2013-6-9,89,79,73,61,60,56,66,53,38,0.00,40.00,13,8,22,0.00
2013-6-10,88,78,72,67,62,59,73,58,44,0.00,40.00,14,6,21,0.00
2013-6-11,93,78,73,68,63,60,74,61,45,0.00,40.00,13,5,20,0.00
2013-6-12,88,79,70,68,63,59,92,62,39,0.00,40.00,18,9,33,0.04
2013-6-13,89,78,72,67,63,60,82,61,38,0.00,40.00,18,10,30,0.02
2013-6-14,89,78,71,67,62,58,79,60,43,0.00,40.00,14,6,25,0.00
2013-6-15,88,78,70,65,60,58,66,55,41,0.00,40.00,17,9,28,0.00
2013-6-16,88,78,71,63,61,59,71,57,41,0.00,40.00,15,8,26,0.00
2013-6-17,87,78,72,67,62,59,77,60,41,0.00,40.00,15,10,25,0.00
2013-6-18,89,79,72,67,63,60,71,58,44,0.00,40.00,15,8,27,0.00
2013-6-19,90,79,72,68,63,59,74,58,41,0.00,40.00,11,6,18,0.00